Epoch 2002 Mar. 27.0 TT = JDT 2452360.5
T 2002 Mar. 15.20618 TT MPC
q 0.9940480 (2000.0) P Q
n 0.02030608 Peri. 116.41991 -0.46521298 -0.86659330
a 13.3061362 Node 10.55525 -0.28900285 -0.04408086
e 0.9252940 Incl. 80.24516 +0.83669244 -0.49706430
P 48.54
軌道要素は Dr. Brian G. Marsden の計算によるもので、
M.P.E.C. 2002-C04
に掲載されたものです。
星図は StellaNavigator Ver.2.0 for Windows
(アストロアーツ
編著 / アスキー出版局刊) で作成したものです。
光度グラフはComet for Windowsで作成したものです。
Copyright(C) Seiichi Yoshida (comet@aerith.net). All rights reserved.